TimeMDT,TemperatureF,Dew PointF,Humidity,Sea Level PressureIn,VisibilityMPH,Wind Direction,Wind SpeedMPH,Gust SpeedMPH,PrecipitationIn,Events,Conditions,WindDirDegrees,DateUTC
12:53 AM,61.0,24.1,24,29.89,10.0,South,11.5,-,N/A,,Clear,190,2012-10-05 06:53:00
1:53 AM,61.0,24.1,24,29.89,10.0,South,11.5,-,N/A,,Clear,170,2012-10-05 07:53:00
2:53 AM,61.0,23.0,23,29.90,10.0,South,17.3,23.0,N/A,,Clear,180,2012-10-05 08:53:00
3:53 AM,60.1,23.0,24,29.89,10.0,South,12.7,21.9,N/A,,Clear,190,2012-10-05 09:53:00
4:53 AM,57.9,23.0,26,29.90,10.0,West,6.9,-,N/A,,Clear,270,2012-10-05 10:53:00
5:53 AM,46.9,25.0,42,29.96,10.0,ENE,10.4,-,N/A,,Clear,60,2012-10-05 11:53:00
6:53 AM,43.0,26.1,51,30.02,10.0,NE,6.9,-,N/A,,Clear,50,2012-10-05 12:53:00
7:53 AM,44.1,26.1,49,30.04,10.0,NE,4.6,-,N/A,,Clear,50,2012-10-05 13:53:00
8:53 AM,54.0,28.0,37,30.03,10.0,NNE,5.8,-,N/A,,Clear,20,2012-10-05 14:53:00
9:53 AM,64.0,27.0,25,30.00,10.0,NE,4.6,-,N/A,,Clear,40,2012-10-05 15:53:00
10:53 AM,68.0,27.0,21,29.99,10.0,WNW,12.7,19.6,N/A,,Clear,290,2012-10-05 16:53:00
11:53 AM,71.1,24.1,17,29.98,10.0,West,12.7,-,N/A,,Clear,280,2012-10-05 17:53:00
12:53 PM,72.0,21.9,15,29.93,10.0,NW,11.5,19.6,N/A,,Clear,320,2012-10-05 18:53:00
1:53 PM,73.9,21.9,14,29.89,10.0,NW,12.7,21.9,N/A,,Clear,310,2012-10-05 19:53:00
2:53 PM,75.0,21.9,14,29.87,10.0,West,17.3,31.1,N/A,,Clear,280,2012-10-05 20:53:00
3:53 PM,75.0,21.0,13,29.85,10.0,West,12.7,21.9,N/A,,Clear,260,2012-10-05 21:53:00
4:53 PM,73.9,19.0,13,29.86,10.0,West,12.7,20.7,N/A,,Clear,260,2012-10-05 22:53:00
5:53 PM,71.1,19.9,14,29.90,10.0,SW,15.0,23.0,N/A,,Clear,220,2012-10-05 23:53:00
7:53 PM,62.1,23.0,22,29.95,10.0,SSW,8.1,-,N/A,,Clear,200,2012-10-06 01:53:00
8:53 PM,62.1,23.0,22,29.91,10.0,Calm,Calm,-,N/A,,Clear,0,2012-10-06 02:53:00
9:53 PM,55.9,26.1,32,29.89,10.0,North,6.9,-,N/A,,Clear,350,2012-10-06 03:53:00
10:53 PM,59.0,16.0,19,29.90,10.0,Calm,Calm,-,N/A,,Scattered Clouds,0,2012-10-06 04:53:00
11:53 PM,55.0,19.0,24,29.91,10.0,Calm,Calm,-,N/A,,Clear,0,2012-10-06 05:53:00